Location: Étouvelles
(49.5207°N, 3.5808°E)
Time: 00:33:57
(UTC+00:00)

Cosmos 540 Rocket - Pass Details

Date: 24 September 2023
Orbit: 737 x 752 km, 74.1° (Epoch: 03 December)

Event Time Altitude Azimuth Distance (km) Brightness Sun altitude
Rises 20:10:56 0° 344° (NNW) 3,184 7.4 -24.2°
Reaches altitude 10° 20:14:20 10° 8° (N) 2,257 6.2 -24.7°
Enters shadow 20:17:01 15° 40° (NE) 1,924 5.5 -25.1°
